AE7RN Weather Reports


time (UTC)temp
C
wind
direction
speed
KPH
gust
KPH
rain 1hr
cm
rain 24hr
cm
rain mn
cm
humidity
%
barometer
mb
20260508040133 11 177 3.2 6.4 0.00 0.00 0.00 61 1011.9
20260508033133 12 36 3.2 4.8 0.00 0.00 0.00 57 1011.3
20260508030132 13 36 0.0 1.6 0.00 0.00 0.00 53 1011.4
20260508023132 15 36 1.6 1.6 0.00 0.00 0.00 52 1010.7
20260508010130 17 324 17.7 27.4 0.00 0.00 0.00 43 1009.7
20260508003130 18 288 8.0 35.4 0.00 0.00 0.00 41 1008.8
20260508000129 18 279 9.7 25.7 0.00 0.00 0.00 38 1008.7
20260507230128 21 230 9.7 19.3 0.00 0.00 0.00 32 1008.8
20260507223128 20 11 6.4 22.5 0.00 0.00 0.00 34 1009.0
20260507220127 20 297 4.8 24.1 0.00 0.00 0.00 36 1009.2
20260507210126 20 288 12.9 24.1 0.00 0.00 0.00 38 1009.6
20260507203126 20 42 4.8 24.1 0.00 0.00 0.00 36 1010.3
20260507200125 20 294 8.0 29.0 0.00 0.00 0.00 38 1010.0
20260507193125 19 323 4.8 20.9 0.00 0.00 0.00 36 1010.4
20260507190125 19 289 14.5 27.4 0.00 0.00 0.00 35 1010.7
20260507183124 19 323 17.7 29.0 0.00 0.00 0.00 38 1011.2
20260507180123 18 281 16.1 29.0 0.00 0.00 0.00 41 1011.3
20260507173122 17 310 4.8 22.5 0.00 0.00 0.00 45 1011.5
20260507170122 18 324 12.9 27.4 0.00 0.00 0.00 40 1011.7
20260507153120 16 84 4.8 9.7 0.00 0.00 0.00 52 1012.3
20260507150120 14 94 3.2 11.3 0.00 0.00 0.00 57 1012.0
20260507143119 13 130 6.4 9.7 0.00 0.00 0.00 62 1012.0
20260507133119 10 87 1.6 12.9 0.00 0.00 0.00 77 1011.5
20260507130149 8 182 3.2 9.7 0.00 0.00 0.00 79 1011.3
20260507123147 8 108 1.6 9.7 0.00 0.00 0.00 80 1012.0
20260507120147 8 12 0.0 6.4 0.00 0.00 0.00 77 1012.2
20260507113146 10 296 3.2 19.3 0.00 0.00 0.00 72 1013.0
20260507110146 10 300 0.0 16.1 0.00 0.00 0.00 68 1012.2
20260507103145 10 223 11.3 24.1 0.00 0.00 0.00 68 1011.9
20260507100145 10 187 11.3 14.5 0.00 0.00 0.00 67 1011.7
20260507093144 11 171 1.6 12.9 0.00 0.00 0.00 66 1012.7
20260507090144 11 134 4.8 16.1 0.00 0.00 0.00 63 1012.9
20260507083144 12 84 1.6 6.4 0.00 0.00 0.00 58 1012.9
20260507080143 13 11 0.0 6.4 0.00 0.00 0.00 55 1013.3
20260507073142 13 265 0.0 11.3 0.00 0.00 0.00 53 1012.7
20260507070141 13 196 9.7 19.3 0.00 0.00 0.00 54 1012.7
20260507063142 14 210 14.5 27.4 0.00 0.00 0.00 52 1012.3
20260507060140 16 199 6.4 33.8 0.00 0.00 0.00 41 1012.5
20260507050140 15 181 19.3 53.1 0.00 0.00 0.00 42 1012.2